Regional Weather Roundup
Issued by NWS Huntsville, AL

Home | Current Version | Previous Version | Text Only | Print | Product List | Glossary On
Versions: 1 2 3 4 5 6 7 8 9 10 11 12 13 14 15 16 17 18 19 20 21 22 23 24 25 26 27 28 29 30 31 32 33 34 35 36 37 38 39 40 41 42 43 44 45 46 47 48 49 50
901
ASUS44 KHUN 211610
RWRHUN

WEATHER ROUNDUP FOR THE TENNESSEE VALLEY
NATIONAL WEATHER SERVICE HUNTSVILLE AL
1000 AM CST SAT JAN 21 2017

ALZ001>004-211700-
NORTHWEST ALABAMA

CITY           SKY/WX    TMP DP  RH WIND       PRES   REMARKS
COURTLAND HCN    N/A     59 N/A N/A E16         N/A
RUSSELLVILLE     N/A     57 N/A N/A MISG        N/A
SHOALS AIRPORT PTSUNNY   60  55  83 SE8       29.71R
SHOALS TVA RES   N/A     57 N/A N/A MISG        N/A
$$

ALZ005>007-016-211700-
NORTH CENTRAL ALABAMA

CITY           SKY/WX    TMP DP  RH WIND       PRES   REMARKS
CULLMAN AG STN   N/A     57 N/A N/A SE3         N/A
DECATUR AP     PTSUNNY   57  56  96 SE6       29.71F
HUNTSVILLE AP  CLOUDY    59  57  93 E17G30    29.69F
MERIDIANVILLE    N/A    N/A N/A N/A MISG        N/A
REDSTONE ARSN  CLOUDY    57  55  94 SE14      29.68F FOG
VINEMONT AP    FAIR      56  51  83 E8G18     29.72F
$$

ALZ008>010-211700-
NORTHEAST ALABAMA

CITY           SKY/WX    TMP DP  RH WIND       PRES   REMARKS
ALBERTVILLE    LGT RAIN  54  54 100 E15G33    29.68F
FORT PAYNE     RAIN      55  52  88 CALM      29.84F
SCOTTSBORO AP  LGT RAIN  55  55 100 E7        29.82F
SCOTTSBORO HCN   N/A     57 N/A N/A MISG        N/A
VALLEY HEAD      N/A     55 N/A N/A MISG        N/A
$$

TNZ076-096-097-211700-
SOUTHEASTERN MIDDLE TENNESSEE

CITY           SKY/WX    TMP DP  RH WIND       PRES   REMARKS
TULLAHOMA      CLOUDY    55  54  94 S6        29.82F
WINCHESTER     CLOUDY    55  54  94 SE8       29.84R
$$

...SURROUNDING SITES...

CITY           SKY/WX    TMP DP  RH WIND       PRES   REMARKS
ATLANTA        HVY RAIN  60  59  96 NE14G22   29.77S FOG
ANNISTON       LGT RAIN  57  54  89 NE9       29.84F
BIRMINGHAM     CLOUDY    58  53  84 NE8G20    29.73F
CHATTANOOGA    RAIN      57  55  93 S10       29.85S FOG
CORINTH        FAIR      61  54  77 SE8       29.71S
DALTON         RAIN      55  55 100 W3        29.85S
GADSDEN        LGT RAIN  57  56  96 E20       29.73F
GOLDEN TRNGL   PTSUNNY   61  54  77 SW5       29.70R
HALEYVILLE     FAIR      59  55  87 CALM      29.75R
JACKSON TN     CLOUDY    64  53  67 SE10G20   29.69S
MEMPHIS        MOSUNNY   66  52  60 S16       29.69R
NASHVILLE      CLOUDY    64  51  62 S12       29.70F
OXFORD MS      FAIR      63  50  63 S9        29.73R
ROME           HVY RAIN  58  54  86 NW8       29.84R FOG
SAVANNAH       SUNNY     63  54  72 S5        29.72S
TUPELO         MOSUNNY   61  54  77 E7        29.71F
TUSCALOOSA     CLOUDY    59  56  89 VRB3      29.73R
$$

...GULF COAST WEATHER...

CITY           SKY/WX    TMP DP  RH WIND       PRES   REMARKS
GULFPORT       PTSUNNY   67  62  84 N7        29.75F
PASCAGOULA     CLOUDY    67  61  81 E14       29.70F
MOBILE         CLOUDY    66  61  84 NE6       29.77F
GULF SHORES    CLOUDY    60  60 100 N8        29.79R
PENSACOLA      TSTM      61  59  93 NW13      29.79  VSB 3/4
DESTIN         CLOUDY    76  74  93 S12G21    29.77R
PANAMA CITY    MOSUNNY   74  70  89 S16       29.80F
APPALACHICOLA  CLOUDY    73  72  96 S12       29.85S
$$





USA.gov is the U.S. government's official web portal to all federal, state and local government web resources and services.